TimeCDT,TemperatureF,Dew PointF,Humidity,Sea Level PressureIn,VisibilityMPH,Wind Direction,Wind SpeedMPH,Gust SpeedMPH,PrecipitationIn,Events,Conditions,WindDirDegrees,DateUTC
12:53 AM,66.9,54.0,63,29.87,10.0,South,12.7,-,N/A,,Clear,170,2012-10-04 05:53:00
1:53 AM,66.0,53.1,63,29.87,10.0,South,12.7,-,N/A,,Clear,170,2012-10-04 06:53:00
2:53 AM,64.0,52.0,65,29.88,10.0,South,11.5,-,N/A,,Clear,180,2012-10-04 07:53:00
3:53 AM,66.0,44.1,45,29.87,10.0,SSW,11.5,-,N/A,,Clear,200,2012-10-04 08:53:00
4:53 AM,70.0,39.9,33,29.86,10.0,SSW,13.8,-,N/A,,Clear,210,2012-10-04 09:53:00
5:53 AM,69.1,39.0,33,29.87,10.0,SSW,13.8,-,N/A,,Clear,210,2012-10-04 10:53:00
6:53 AM,68.0,39.9,36,29.90,10.0,SSW,12.7,-,N/A,,Clear,210,2012-10-04 11:53:00
7:53 AM,66.9,39.9,37,29.92,10.0,SW,12.7,-,N/A,,Clear,220,2012-10-04 12:53:00
8:53 AM,70.0,42.1,36,29.95,10.0,SW,11.5,-,N/A,,Clear,220,2012-10-04 13:53:00
9:53 AM,75.0,46.0,36,30.00,10.0,WNW,9.2,-,N/A,,Clear,300,2012-10-04 14:53:00
10:53 AM,70.0,52.0,53,30.06,10.0,North,13.8,-,N/A,,Clear,360,2012-10-04 15:53:00
11:53 AM,70.0,48.0,46,30.10,9.0,NNW,15.0,-,N/A,,Clear,340,2012-10-04 16:53:00
12:53 PM,72.0,46.9,41,30.11,10.0,NNW,15.0,-,N/A,,Clear,330,2012-10-04 17:53:00
1:53 PM,72.0,46.0,40,30.11,10.0,NNW,15.0,-,N/A,,Clear,330,2012-10-04 18:53:00
2:53 PM,73.0,46.0,38,30.08,10.0,NNW,15.0,-,N/A,,Clear,330,2012-10-04 19:53:00
3:53 PM,73.9,46.0,37,30.06,10.0,WNW,8.1,-,N/A,,Clear,300,2012-10-04 20:53:00
5:53 PM,75.9,46.0,35,30.04,10.0,North,5.8,-,N/A,,Clear,360,2012-10-04 22:53:00
6:53 PM,73.9,46.0,37,30.04,10.0,North,3.5,-,N/A,,Clear,10,2012-10-04 23:53:00
7:53 PM,68.0,50.0,52,30.05,10.0,Calm,Calm,-,N/A,,Clear,0,2012-10-05 00:53:00
8:53 PM,66.0,50.0,56,30.06,10.0,South,4.6,-,N/A,,Clear,180,2012-10-05 01:53:00
9:53 PM,64.0,50.0,60,30.05,10.0,South,5.8,-,N/A,,Clear,170,2012-10-05 02:53:00
10:53 PM,63.0,48.9,60,30.06,10.0,South,5.8,-,N/A,,Clear,170,2012-10-05 03:53:00
11:53 PM,61.0,50.0,67,30.06,10.0,SSE,8.1,-,N/A,,Clear,160,2012-10-05 04:53:00